Weather History for KHKA - August, 2014

Change the Weather History Date:

Saturday, August 30, 2014

  Actual Average Record
Temperature  
Mean Temperature 77 °F -  
Max Temperature 81 °F 89 °F 104 °F (1951)
Min Temperature 73 °F 67 °F 51 °F (1946)
Cooling Degree Days 12    
Growing Degree Days 27 (Base 50)    
Moisture  
Dew Point 73 °F    
Average Humidity 90    
Maximum Humidity 97    
Minimum Humidity 81    
Precipitation  
Precipitation 0.08 in - - ()
Sea Level Pressure  
Sea Level Pressure 30.00 in    
Wind  
Wind Speed 5 mph (South)    
Max Wind Speed 10 mph    
Max Gust Speed -    
Visibility 10 miles    
Events Rain    
Averages and records for this station are not official NWS values.
T = Trace of Precipitation, MM = Missing Value Source: NWS Daily Summary

Daily Weather History Graph

Daily Weather History Graph

Search for Another Location

Airport or City:

Trip Planner

Search our weather history database for the weather conditions in past years. The results will help you decide how hot, cold, wet, or windy it might be!

Date:

Astronomy

Aug. 30, 2014 Rise Set
Actual Time 6:29 AM CDT 7:29 PM CDT
Civil Twilight 6:03 AM CDT 7:55 PM CDT
Nautical Twilight 5:32 AM CDT 8:26 PM CDT
Astronomical Twilight 4:59 AM CDT 8:59 PM CDT
Moon 11:07 AM CDT (8/30) 10:14 PM CDT (8/30)
Length of Visible Light 13h 52m
Length of Day
12h 59m
Waxing Crescent, 23% of the Moon is Illuminated
Aug 30
Waxing Crescent
Sep 2
First Quarter
Sep 8
Full
Sep 15
Last Quarter
Sep 24
New

Hourly Weather History & Observations

Time (CDT) Temp. Heat Index Dew Point Humidity Pressure Visibility Wind Dir Wind Speed Gust Speed Precip Events Conditions
12:53 AM 73.9 °F - 72.0 °F 93% 30.00 in 10.0 mi SE 3.5 mph - N/A   Partly Cloudy
1:53 AM 73.9 °F - 73.0 °F 97% 29.98 in 10.0 mi SE 3.5 mph - N/A   Partly Cloudy
3:53 AM 73.9 °F - 73.0 °F 97% 29.98 in 10.0 mi Calm Calm - N/A   Clear
4:53 AM 73.9 °F - 73.0 °F 97% 29.98 in 10.0 mi SE 3.5 mph - N/A   Clear
5:53 AM 75.0 °F - 73.0 °F 94% 29.99 in 10.0 mi SSE 5.8 mph - N/A   Clear
6:53 AM 75.0 °F - 73.0 °F 94% 30.00 in 10.0 mi SSW 4.6 mph - N/A   Clear
7:53 AM 77.0 °F - 73.9 °F 90% 30.01 in 10.0 mi SSW 4.6 mph - N/A   Partly Cloudy
8:53 AM 79.0 °F - 73.9 °F 84% 30.02 in 10.0 mi SSW 9.2 mph - N/A   Clear
9:53 AM 81.0 °F 86.7 °F 75.0 °F 82% 30.03 in 10.0 mi SSW 8.1 mph - N/A   Mostly Cloudy
10:53 AM 80.1 °F 84.5 °F 73.9 °F 81% 30.03 in 10.0 mi WSW 6.9 mph - 0.00 in   Scattered Clouds
11:53 AM 78.1 °F - 73.9 °F 87% 30.05 in 10.0 mi WSW 6.9 mph - 0.01 in Rain Light Rain
12:53 PM 75.9 °F - 73.9 °F 94% 30.04 in 10.0 mi West 5.8 mph - 0.05 in Rain Light Rain
1:53 PM 75.9 °F - 72.0 °F 87% 30.02 in 10.0 mi SW 4.6 mph - 0.02 in Rain Light Rain
2:53 PM 77.0 °F - 73.0 °F 88% 30.01 in 10.0 mi South 6.9 mph - 0.00 in Rain Light Rain
3:53 PM 77.0 °F - 73.0 °F 88% 29.99 in 10.0 mi South 8.1 mph - 0.00 in   Mostly Cloudy
4:53 PM 79.0 °F - 73.0 °F 82% 29.98 in 10.0 mi South 9.2 mph - N/A   Partly Cloudy
5:53 PM 79.0 °F - 73.9 °F 84% 29.99 in 10.0 mi South 10.4 mph - N/A   Partly Cloudy
6:53 PM 77.0 °F - 73.9 °F 90% 29.99 in 10.0 mi South 6.9 mph - N/A   Clear
7:53 PM 75.9 °F - 75.0 °F 97% 29.99 in 10.0 mi South 8.1 mph - N/A   Mostly Cloudy
8:53 PM 75.9 °F - 73.9 °F 94% 29.99 in 10.0 mi South 5.8 mph - N/A   Partly Cloudy
10:53 PM 73.9 °F - 72.0 °F 93% 29.99 in 10.0 mi South 5.8 mph - N/A   Partly Cloudy
11:38 PM 73.9 °F - 72.0 °F 93% 29.99 in 10.0 mi South 6.9 mph - N/A   Mostly Cloudy
11:45 PM 73.9 °F - 72.0 °F 93% 29.99 in 10.0 mi South 6.9 mph - N/A   Mostly Cloudy
11:53 PM 73.9 °F - 72.0 °F 93% 29.98 in 10.0 mi South 6.9 mph - N/A   Overcast